BAW460 EGLL-LEMD

Flight info

Callsign BAW460
Flight time N/A
Altitude 34000
Route GASGU2J GASGU N866 SAM M195 MARUK N621 LELNA DCT NOVAN DCT DELOG N864 NONTU NONTU4C
Aircraft B748/H-SDE3FGHIM1M2RWXY/LB1

Departure

Time N/A
Airport London Heathrow Airport (EGLL)

Arrival

Time 2026-05-01 11:05
Airport Adolfo Suárez Madrid–Barajas Airport (LEMD)
Time Latitude Longitude Altitude Speed Heading
2026-05-01 10:23 44.18126 -3.97295 34201 ft 512 kts 179°
2026-05-01 10:23 44.07458 -3.96259 34189 ft 511 kts 178°
2026-05-01 10:24 43.93285 -3.94884 34176 ft 510 kts 178°
2026-05-01 10:25 43.79166 -3.93519 34175 ft 510 kts 179°
2026-05-01 10:26 43.72094 -3.92837 34166 ft 510 kts 179°
2026-05-01 10:27 43.57938 -3.91479 34155 ft 510 kts 179°
2026-05-01 10:28 43.47309 -3.90464 34155 ft 510 kts 179°
2026-05-01 10:28 43.36777 -3.91454 34164 ft 506 kts 189°
2026-05-01 10:29 43.26276 -3.93010 34167 ft 505 kts 189°
2026-05-01 10:30 43.12310 -3.95075 34166 ft 505 kts 189°
2026-05-01 10:31 42.98384 -3.97121 34158 ft 505 kts 189°
2026-05-01 10:32 42.87898 -3.98655 34156 ft 505 kts 189°
2026-05-01 10:33 42.73922 -4.00690 34155 ft 505 kts 189°
2026-05-01 10:34 42.63442 -4.02210 34149 ft 505 kts 189°
2026-05-01 10:34 42.56460 -4.03220 34149 ft 505 kts 189°
2026-05-01 10:35 42.45987 -4.04731 34152 ft 504 kts 190°
2026-05-01 10:35 42.39062 -4.05727 34154 ft 504 kts 190°
2026-05-01 10:36 42.28616 -4.07226 34151 ft 503 kts 190°
2026-05-01 10:37 42.21653 -4.08222 34147 ft 503 kts 190°
2026-05-01 10:37 42.11228 -4.09709 34148 ft 502 kts 190°
2026-05-01 10:38 42.04285 -4.10697 34149 ft 501 kts 189°
2026-05-01 10:38 41.97330 -4.11505 34151 ft 501 kts 189°
2026-05-01 10:39 41.90397 -4.12346 34146 ft 500 kts 188°
2026-05-01 10:39 41.83462 -4.13104 34148 ft 500 kts 188°
2026-05-01 10:40 41.76543 -4.13909 34152 ft 499 kts 188°
2026-05-01 10:40 41.69648 -4.14680 34064 ft 497 kts 188°
2026-05-01 10:41 41.66211 -4.15071 33624 ft 494 kts 188°
2026-05-01 10:41 41.62803 -4.15459 33123 ft 489 kts 188°
2026-05-01 10:41 41.56050 -4.16220 31967 ft 483 kts 188°
2026-05-01 10:42 41.52759 -4.16590 31502 ft 478 kts 188°
2026-05-01 10:42 41.49463 -4.16962 31016 ft 474 kts 188°
2026-05-01 10:42 41.46196 -4.17331 30528 ft 470 kts 188°
2026-05-01 10:42 41.42949 -4.17696 29990 ft 466 kts 188°
2026-05-01 10:43 41.39728 -4.18058 29436 ft 463 kts 188°
2026-05-01 10:43 41.36537 -4.18416 28886 ft 459 kts 188°
2026-05-01 10:43 41.33365 -4.18772 28351 ft 455 kts 188°
2026-05-01 10:43 41.30223 -4.19124 27827 ft 451 kts 188°
2026-05-01 10:44 41.27109 -4.19473 27310 ft 448 kts 187°
2026-05-01 10:44 41.24009 -4.19672 26788 ft 445 kts 185°
2026-05-01 10:44 41.20927 -4.19864 26282 ft 441 kts 186°
2026-05-01 10:44 41.17870 -4.20071 25795 ft 438 kts 186°
2026-05-01 10:45 41.14834 -4.20258 25305 ft 435 kts 185°
2026-05-01 10:45 41.11815 -4.20431 24827 ft 432 kts 185°
2026-05-01 10:45 41.08821 -4.20610 24351 ft 429 kts 185°
2026-05-01 10:45 41.05852 -4.20796 23882 ft 426 kts 185°
2026-05-01 10:46 41.02893 -4.20977 23449 ft 422 kts 185°
2026-05-01 10:46 40.99978 -4.21152 23054 ft 420 kts 185°
2026-05-01 10:46 40.97054 -4.21328 22669 ft 420 kts 185°
2026-05-01 10:46 40.94144 -4.21506 22277 ft 418 kts 185°
2026-05-01 10:47 40.91244 -4.21681 21894 ft 416 kts 185°
2026-05-01 10:47 40.88363 -4.21855 21511 ft 413 kts 185°
2026-05-01 10:47 40.85495 -4.22028 21124 ft 411 kts 185°
2026-05-01 10:47 40.82643 -4.22200 20757 ft 409 kts 185°
2026-05-01 10:48 40.79848 -4.22369 20373 ft 407 kts 185°
2026-05-01 10:48 40.77031 -4.22538 20008 ft 404 kts 184°
2026-05-01 10:48 40.74226 -4.22707 19638 ft 402 kts 184°
2026-05-01 10:48 40.71441 -4.22874 19265 ft 400 kts 184°
2026-05-01 10:49 40.68669 -4.23041 18910 ft 397 kts 184°
2026-05-01 10:49 40.65918 -4.23206 18536 ft 395 kts 184°
2026-05-01 10:49 40.63185 -4.23370 18140 ft 393 kts 184°
2026-05-01 10:49 40.60468 -4.23532 17772 ft 390 kts 184°
2026-05-01 10:50 40.57761 -4.23694 17240 ft 391 kts 184°
2026-05-01 10:50 40.55056 -4.23856 16823 ft 387 kts 184°
2026-05-01 10:50 40.52385 -4.23697 16470 ft 384 kts 170°
2026-05-01 10:50 40.49830 -4.22651 16121 ft 386 kts 161°
2026-05-01 10:51 40.47327 -4.21368 15751 ft 386 kts 160°
2026-05-01 10:51 40.44840 -4.20059 15395 ft 384 kts 160°
2026-05-01 10:51 40.42359 -4.18778 15043 ft 381 kts 160°
2026-05-01 10:51 40.39923 -4.17544 14699 ft 380 kts 161°
2026-05-01 10:52 40.37478 -4.16264 14359 ft 378 kts 156°
2026-05-01 10:52 40.35291 -4.14345 14012 ft 381 kts 138°
2026-05-01 10:52 40.33633 -4.11637 13575 ft 384 kts 121°
2026-05-01 10:52 40.32608 -4.08421 13134 ft 383 kts 109°
2026-05-01 10:53 40.31868 -4.05086 12698 ft 380 kts 107°
2026-05-01 10:53 40.31134 -4.01771 12251 ft 377 kts 109°
2026-05-01 10:53 40.30297 -3.98534 11832 ft 373 kts 111°
2026-05-01 10:53 40.29444 -3.95336 11473 ft 371 kts 110°
2026-05-01 10:54 40.28642 -3.92139 11112 ft 367 kts 109°
2026-05-01 10:54 40.27864 -3.88965 10742 ft 365 kts 110°
2026-05-01 10:54 40.27069 -3.85808 10397 ft 365 kts 110°
2026-05-01 10:54 40.26266 -3.82668 10045 ft 363 kts 110°
2026-05-01 10:55 40.25473 -3.79546 9662 ft 360 kts 110°
2026-05-01 10:55 40.24691 -3.76450 9298 ft 357 kts 110°
2026-05-01 10:55 40.24175 -3.74411 9065 ft 355 kts 110°
2026-05-01 10:55 40.23400 -3.71361 8700 ft 352 kts 110°
2026-05-01 10:56 40.22631 -3.68341 8342 ft 349 kts 110°
2026-05-01 10:56 40.21866 -3.65336 7966 ft 346 kts 109°
2026-05-01 10:56 40.21109 -3.62364 7588 ft 343 kts 109°
2026-05-01 10:56 40.20119 -3.58487 7072 ft 330 kts 109°
2026-05-01 10:57 40.19639 -3.56602 6792 ft 316 kts 109°
2026-05-01 10:57 40.18964 -3.53972 6376 ft 291 kts 109°
2026-05-01 10:57 40.18363 -3.51615 5934 ft 264 kts 109°
2026-05-01 10:57 40.17862 -3.49406 5514 ft 246 kts 100°
2026-05-01 10:58 40.17998 -3.47220 5136 ft 242 kts 71°
2026-05-01 10:58 40.18887 -3.45396 4761 ft 238 kts 43°
2026-05-01 10:58 40.20260 -3.44319 4328 ft 224 kts 22°
2026-05-01 10:58 40.21675 -3.43576 3925 ft 215 kts 21°
2026-05-01 10:59 40.23080 -3.42852 3931 ft 219 kts 21°
2026-05-01 10:59 40.24478 -3.42122 3932 ft 209 kts 22°
2026-05-01 10:59 40.25787 -3.41435 3933 ft 201 kts 22°
2026-05-01 10:59 40.27062 -3.40765 3929 ft 198 kts 22°
2026-05-01 11:00 40.28331 -3.40096 3923 ft 197 kts 21°
2026-05-01 11:00 40.29624 -3.39492 3915 ft 197 kts
2026-05-01 11:00 40.30934 -3.39760 3963 ft 197 kts 329°
2026-05-01 11:00 40.32005 -3.40856 3943 ft 183 kts 320°
2026-05-01 11:01 40.32964 -3.41847 3976 ft 175 kts 321°
2026-05-01 11:01 40.33899 -3.42795 3953 ft 172 kts 320°
2026-05-01 11:01 40.34849 -3.43761 3978 ft 173 kts 320°
2026-05-01 11:01 40.35796 -3.44723 3940 ft 170 kts 321°
2026-05-01 11:02 40.36732 -3.45674 3944 ft 170 kts 320°
2026-05-01 11:02 40.37665 -3.46621 3938 ft 171 kts 320°
2026-05-01 11:02 40.38587 -3.47559 3944 ft 171 kts 321°
2026-05-01 11:02 40.39486 -3.48473 3735 ft 168 kts 320°
2026-05-01 11:03 40.40405 -3.49390 3523 ft 167 kts 321°
2026-05-01 11:03 40.41297 -3.50298 3282 ft 168 kts 321°
2026-05-01 11:03 40.42199 -3.51217 3052 ft 167 kts 321°
2026-05-01 11:03 40.43109 -3.52128 2964 ft 166 kts 321°
2026-05-01 11:04 40.43984 -3.53000 2655 ft 164 kts 322°
2026-05-01 11:04 40.44899 -3.53929 2375 ft 161 kts 321°
2026-05-01 11:04 40.45760 -3.54826 2141 ft 159 kts 321°
2026-05-01 11:04 40.46597 -3.55674 1992 ft 152 kts 322°
2026-05-01 11:05 40.47305 -3.56400 1989 ft 104 kts 322°
2026-05-01 11:05 40.47741 -3.56842 1988 ft 58 kts 323°
2026-05-01 11:05 40.48013 -3.57118 1989 ft 42 kts 321°
2026-05-01 11:05 40.48209 -3.57319 1989 ft 31 kts 323°
2026-05-01 11:06 40.48345 -3.57459 1989 ft 21 kts 321°
2026-05-01 11:06 40.48436 -3.57530 1989 ft 11 kts 339°
2026-05-01 11:06 40.48499 -3.57543 2000 ft 7 kts
2026-05-01 11:07 40.48597 -3.57428 1989 ft 22 kts 50°
2026-05-01 11:07 40.48698 -3.57262 1988 ft 23 kts 43°
2026-05-01 11:07 40.48859 -3.57234 1987 ft 27 kts 358°
2026-05-01 11:07 40.49073 -3.57238 1987 ft 35 kts
2026-05-01 11:08 40.49268 -3.57228 1989 ft 13 kts 25°
2026-05-01 11:08 40.49289 -3.57151 1987 ft 10 kts 84°
2026-05-01 11:08 40.49328 -3.57013 1990 ft 10 kts 24°
2026-05-01 11:09 40.49402 -3.57009 1989 ft 14 kts 358°
2026-05-01 11:09 40.49444 -3.57010 1987 ft 0 kts
2026-05-01 11:09 40.49449 -3.57010 1987 ft 3 kts
2026-05-01 11:10 40.49504 -3.57011 1987 ft 5 kts 359°
2026-05-01 11:10 40.49532 -3.57002 1988 ft 2 kts 26°
2026-05-01 11:10 40.49536 -3.57000 1990 ft 1 kts 31°
2026-05-01 11:10 40.49548 -3.56986 1988 ft 3 kts 44°
2026-05-01 11:11 40.49556 -3.56961 1990 ft 3 kts 77°
2026-05-01 11:11 40.49557 -3.56924 1990 ft 4 kts 90°
2026-05-01 11:11 40.49557 -3.56893 1990 ft 0 kts 89°
2026-05-01 11:11 40.49557 -3.56888 1990 ft 1 kts 89°
2026-05-01 11:12 40.49557 -3.56881 1990 ft 0 kts 90°